Probability
0 0 1 2 3 3 2 2 2 1 2 2 2 1 0 0 0 0 0 0 0 0 0 0 0 0 0 0 0 0 0 0 0 0 0 0 0 0 0 0 0 0 0
0 0 0 1 2 2 1 1 1 0 1 1 1 0 0 0 0 0 0 0 0 0 0 0 0 0 0 0 0 0 0 0 0 0 0 0 0 0 0 0 0 0 0
0 0 0 0 1 1 0 0 0 0 0 0 0 0 0 0 0 0 0 0 0 0 0 0 0 0 0 0 0 0 0 0 0 0 0 0 0 0 0 0 0 0 0
0 0 0 0 0 0 0 0 0 0 0 0 0 0 0 0 0 0 0 0 0 0 0 0 0 0 0 0 0 0 0 0 0 0 0 0 0 0 0 0 0 0 0
0 0 0 0 0 0 0 0 0 0 0 0 0 0 0 0 0 0 0 0 0 0 0 0 0 0 0 0 0 0 0 0 0 0 0 0 0 0 0 0 0 0 0
0 0 0 0 0 0 0 0 0 0 0 0 0 0 0 0 0 0 0 0 0 0 0 0 0 0 0 0 0 0 0 0 0 0 0 0 0 0 0 0 0 0 0
0 0 0 0 0 0 0 0 0 0 0 0 0 0 0 0 0 0 0 0 0 0 0 0 0 0 0 0 0 0 0 0 0 0 0 0 0 0 0 0 0 0 0
0 0 0 0 0 0 0 0 0 0 0 0 0 0 0 0 0 0 0 0 0 0 0 0 0 0 0 0 0 0 0 0 0 0 0 0 0 0 0 0 0 0 0
0 0 0 0 0 0 0 0 0 0 0 0 0 0 0 0 0 0 0 0 0 0 0 0 0 0 0 0 0 0 0 0 0 0 0 0 0 0 0 0 0 0 0
0 0 0 0 0 0 0 0 0 0 0 0 0 0 0 0 0 0 0 0 0 0 0 0 0 0 0 0 0 0 0 0 0 0 0 0 0 0 0 0 0 0 0
0 0 0 0 0 0 0 0 0 0 0 0 0 0 0 0 0 0 0 0 0 0 0 0 0 0 0 0 0 0 0 0 0 0 0 0 0 0 0 0 0 0 0
0 0 0 0 0 0 0 0 0 0 0 0 0 0 0 0 0 0 0 0 0 0 0 0 0 0 0 0 0 0 0 0 0 0 0 0 0 0 0 0 0 0 0
0 0 0 0 0 0 0 0 0 0 0 0 0 0 0 0 0 0 0 0 0 0 0 0 0 0 0 0 0 0 0 0 0 0 0 0 0 0 0 0 0 0 0
0 0 0 0 0 0 0 0 0 0 0 0 0 0 0 0 0 0 0 0 0 0 0 0 0 0 0 0 0 0 0 0 0 0 0 0 0 0 0 0 0 0 0
0 0 0 1 1 1 0 0 0 0 0 0 0 0 0 0 0 0 0 0 0 0 0 0 0 0 0 0 0 0 0 0 0 0 0 0 0 0 0 0 0 0 0
0 0 0 1 1 1 0 0 0 0 0 0 0 0 0 0 0 0 0 0 0 0 0 0 0 0 0 0 0 0 0 0 0 0 0 0 0 0 0 0 0 0 0
0 0 0 0 0 0 0 0 0 0 0 0 0 0 0 0 0 0 0 0 0 0 0 0 0 0 0 0 0 0 0 0 0 0 0 0 0 0 0 0 0 0 0
0 0 0 0 0 0 0 0 0 0 0 0 0 0 0 0 0 0 0 0 0 0 0 0 0 0 0 0 0 0 0 0 0 0 0 0 0 0 0 0 0 0 0
0 0 0 0 0 0 0 0 0 0 0 0 0 0 0 0 0 0 0 0 0 0 0 0 0 0 0 0 0 0 0 0 0 0 0 0 0 0 0 0 0 0 0
0 0 0 0 0 0 0 0 0 0 0 0 0 0 0 0 0 0 0 0 0 0 0 0 0 0 0 0 0 0 0 0 0 0 0 0 0 0 0 0 0 0 0
0 0 0 0 0 0 0 0 0 0 0 0 0 0 0 0 0 0 0 0 0 0 0 0 0 0 0 0 0 0 0 0 0 0 0 0 0 0 0 0 0 0 0
0 0 0 0 0 0 0 0 0 0 0 0 0 0 0 0 0 0 0 0 0 0 0 0 0 0 0 0 0 0 0 0 0 0 0 0 0 0 0 0 0 0 0
0 0 0 0 0 0 0 0 0 0 0 0 0 0 0 0 0 0 0 0 0 0 0 0 0 0 0 0 0 0 0 0 0 0 0 0 0 0 0 0 0 0 0
0 0 0 0 0 0 0 0 0 0 0 0 0 0 0 0 0 0 0 0 0 0 0 0 0 0 0 0 0 0 0 0 0 0 0 0 0 0 0 0 0 0 0
0 0 0 0 0 0 0 0 0 0 0 0 0 0 0 0 0 0 0 0 0 0 0 0 0 0 0 0 0 0 0 0 0 0 0 0 0 0 0 0 0 0 0
0 0 0 0 0 0 0 0 0 0 0 0 0 0 0 0 0 0 0 0 0 0 0 0 0 0 0 0 0 0 0 0 0 0 0 0 0 0 0 0 0 0 0
Wind_Speed
8 6 5 4 4 3 2 2 2 2 2 3 3 3 4 4 4 4 3 3 3 3 4 4 4 3 3 2 2 2 3 3 3 3 2 2 2 2 1 2 2 3 6
7 7 6 5 5 4 3 2 2 2 2 3 3 3 3 3 4 5 4 4 4 4 4 3 3 3 3 2 2 3 3 3 3 3 2 2 3 3 2 3 2 3 3
7 6 6 6 6 5 5 5 4 3 2 2 2 2 3 3 3 4 5 5 5 4 3 3 3 3 3 2 3 3 2 2 2 2 2 1 2 2 1 2 3 3 4
7 7 7 6 5 5 5 6 5 5 3 2 1 1 2 2 2 2 3 3 3 3 2 2 2 2 2 2 1 1 1 1 1 1 1 1 1 1 1 2 2 2 3
7 8 8 6 5 5 5 5 5 6 6 4 3 2 2 2 2 2 1 1 1 2 2 2 4 5 5 3 2 1 1 0 0 1 1 1 1 1 2 2 2 2 2
7 8 8 7 8 7 6 6 6 6 6 6 5 4 4 4 7 7 5 3 1 1 2 3 5 5 5 5 4 3 2 1 0 0 1 1 2 2 2 2 1 1 2
7 6 7 8 7 7 8 7 7 6 7 7 6 6 5 6 8 8 7 4 3 1 0 2 2 4 5 4 4 4 2 3 2 0 1 2 1 1 1 1 1 2 2
7 7 7 7 8 8 8 8 7 6 5 5 5 5 4 6 8 8 7 4 3 2 1 1 2 4 2 2 2 2 3 3 3 2 0 2 2 2 1 1 1 1 1
7 7 7 7 7 7 8 7 6 5 5 4 4 5 4 5 8 7 7 3 2 1 2 4 4 5 5 5 2 1 2 1 2 2 1 1 2 2 2 1 1 1 1
6 6 6 5 5 6 7 6 5 5 5 4 5 5 5 5 6 8 8 3 2 1 2 4 7 7 6 6 4 3 3 2 2 1 0 1 1 1 0 0 0 0 1
4 5 5 5 5 5 5 5 5 5 5 5 5 4 5 5 6 9 8 3 3 2 2 3 4 7 7 7 6 4 3 3 3 3 2 3 3 2 2 2 1 0 0
3 3 4 4 5 6 5 5 6 6 5 5 5 5 4 4 5 6 8 7 5 3 3 3 4 7 7 7 5 5 5 5 3 3 3 3 3 3 3 3 3 2 1
2 3 3 4 5 5 6 6 6 6 5 4 4 4 4 4 5 8 7 8 8 5 4 7 7 6 4 4 5 5 4 3 3 3 3 3 2 3 3 3 3 3 2
2 2 3 4 5 6 5 5 5 6 6 5 5 5 4 4 6 6 5 4 4 4 4 5 5 5 4 4 3 3 3 4 3 3 2 2 2 3 3 3 3 3 2
3 3 4 4 4 4 5 5 5 5 4 4 4 4 5 5 6 8 5 4 4 3 3 2 3 3 3 3 4 4 4 4 4 3 3 3 3 3 3 3 3 3 3
4 4 3 2 3 3 4 4 6 5 7 8 8 6 4 5 7 9 10 10 9 8 5 4 4 4 4 4 4 4 4 4 4 4 4 3 3 3 3 3 3 3 3
4 3 3 3 2 2 2 2 2 2 4 7 8 9 8 7 8 8 8 9 10 9 6 5 5 5 5 5 4 4 4 4 3 4 4 3 3 3 3 3 4 4 3
3 2 2 1 2 2 2 2 2 2 1 2 3 6 6 7 9 9 8 6 6 6 5 5 5 4 4 4 4 4 4 4 4 4 4 4 4 3 3 3 3 3 3
3 3 2 2 2 2 2 2 2 2 2 2 2 2 2 3 7 10 8 5 5 5 5 5 5 4 4 4 3 3 4 4 4 4 4 4 4 3 3 3 3 4 4
3 3 3 2 1 1 2 2 2 2 3 3 3 3 2 3 4 5 5 5 4 4 4 4 4 5 4 4 3 3 3 4 4 4 3 3 3 3 3 4 3 3 3
2 2 1 2 1 2 2 2 2 2 3 4 3 3 4 3 3 4 4 4 4 4 4 4 4 4 3 3 3 4 4 4 3 3 3 3 3 3 3 3 3 3 3
1 3 3 1 2 2 1 1 2 3 3 4 2 2 3 3 3 3 3 3 3 3 3 3 3 2 2 3 3 4 4 4 4 4 3 3 3 2 3 3 3 4 4
3 1 2 2 3 3 1 1 2 2 3 3 3 2 2 2 2 3 3 3 3 3 3 3 3 3 3 3 3 4 4 4 3 3 3 3 3 3 3 3 4 4 4
4 2 1 3 3 3 2 2 2 2 2 3 3 3 3 3 2 3 3 3 3 3 3 3 3 3 5 4 4 5 4 4 4 4 5 4 3 3 3 3 4 4 4
4 3 1 2 2 2 2 2 2 2 2 2 3 3 3 3 3 2 2 3 3 3 3 3 2 3 6 8 6 4 5 6 6 5 5 3 3 4 3 3 3 4 4
3 3 2 1 2 2 2 2 3 3 3 2 3 3 3 3 3 3 3 3 3 3 2 2 2 3 6 7 6 5 5 6 8 9 5 2 3 4 3 3 4 4 4
Wind_Direction
20 26 31 22 16 7 341 301 288 237 205 208 201 199 189 176 177 177 190 188 211 206 203 209 204 185 179 193 196 201 202 191 225 259 235 235 228 238 225 255 251 185 198
17 23 21 14 6 351 332 315 302 276 235 221 208 199 179 184 187 181 190 186 207 216 205 197 198 181 190 190 186 213 211 200 206 246 259 231 237 235 226 241 252 233 211
16 18 17 17 8 358 347 346 332 315 295 268 216 204 187 187 185 179 181 186 195 198 190 182 183 176 189 176 191 211 214 217 198 218 253 222 231 247 244 258 268 277 275
17 15 12 18 9 358 355 353 344 342 331 305 258 189 170 173 171 181 190 184 175 173 176 164 156 149 153 153 188 202 197 214 209 219 250 242 227 241 227 253 273 271 276
25 19 11 11 12 7 0 354 353 354 350 349 17 45 66 67 45 37 14 121 140 154 153 122 103 106 101 100 92 65 61 68 202 223 243 241 237 211 226 226 249 273 276
31 22 10 16 19 14 11 10 2 359 2 5 13 27 44 49 44 40 18 9 4 127 146 135 142 141 137 133 128 117 98 83 44 312 281 263 257 222 207 207 226 270 286
33 30 20 19 16 14 15 13 5 7 12 13 19 29 54 51 36 29 19 355 336 327 205 169 156 125 143 163 176 185 185 182 186 308 324 328 323 299 205 224 219 231 248
27 26 26 26 20 17 17 12 7 9 12 15 17 24 50 48 32 21 3 325 306 301 325 21 114 114 87 85 154 187 180 182 193 201 335 3 16 6 32 158 193 252 282
27 25 26 28 23 19 16 9 7 8 10 14 24 29 39 46 27 15 356 313 303 315 51 53 64 89 76 50 33 47 110 140 166 160 124 15 4 8 31 41 29 17 305
29 28 26 31 34 25 15 7 5 7 8 18 33 34 33 36 26 16 0 332 338 9 63 78 71 85 80 61 35 36 50 22 35 79 355 321 326 357 30 1 13 333 296
33 34 29 25 39 42 21 8 10 11 15 23 27 36 41 38 28 22 16 5 357 16 64 77 78 83 76 61 52 55 45 359 6 37 46 39 41 46 34 6 18 77 270
37 42 45 46 34 32 28 18 17 15 19 25 22 23 24 34 35 21 22 22 15 36 56 73 84 81 75 64 60 53 31 14 22 40 53 42 31 21 13 8 8 14 66
39 56 52 64 61 39 28 26 23 19 21 21 21 19 12 19 21 20 21 32 41 56 65 78 85 77 76 72 61 43 25 25 42 53 56 46 30 18 11 3 2 7 22
39 63 73 62 62 55 37 31 34 22 15 12 15 14 11 26 17 3 1 25 46 59 77 80 77 64 64 73 68 46 44 44 45 56 56 41 28 23 19 11 6 1 13
33 50 76 85 86 80 69 41 36 50 31 11 3 11 14 18 6 4 13 18 18 30 39 60 56 54 54 47 49 50 45 39 38 36 42 32 22 22 16 12 12 12 23
38 33 42 79 89 105 115 94 54 54 48 45 39 38 51 32 12 21 28 30 36 44 56 58 55 52 51 48 48 44 40 34 29 36 40 34 26 22 17 15 18 22 22
54 37 36 41 62 77 107 127 127 85 55 47 43 44 44 31 28 25 29 38 42 48 57 56 54 51 49 47 45 46 39 27 27 39 41 35 27 27 28 27 22 16 14
70 66 32 53 50 58 58 71 96 114 112 91 54 45 39 34 29 29 35 48 48 48 50 51 50 50 50 48 41 38 34 28 28 35 36 32 26 29 31 26 29 18 7
41 47 32 39 55 69 64 68 73 83 93 105 108 58 24 29 39 43 45 53 54 50 49 46 41 45 47 45 36 32 39 35 29 31 31 28 24 23 22 22 23 17 20
78 51 9 348 48 82 72 75 72 69 71 69 59 33 14 40 45 43 44 49 56 54 50 52 46 43 37 30 23 28 42 45 32 27 25 22 23 21 16 20 21 22 22
141 131 245 291 15 73 71 74 87 88 84 79 69 32 18 57 65 60 55 55 55 56 53 57 59 48 36 25 19 31 45 45 36 25 22 17 16 15 12 18 17 23 26
258 176 195 170 107 80 64 93 103 109 115 117 130 102 47 59 63 63 63 66 68 66 64 69 75 68 52 43 31 33 46 45 33 18 10 3 4 16 22 24 24 35 35
298 227 148 123 116 126 228 166 124 121 128 132 132 122 103 92 83 78 77 72 66 60 55 61 68 59 49 47 52 51 51 35 7 360 0 1 9 21 30 30 35 49 47
301 292 165 150 154 175 201 171 149 147 143 144 140 131 125 111 100 92 88 84 80 69 67 70 66 70 73 62 65 62 48 24 355 350 349 352 15 25 31 35 39 44 49
289 288 246 172 172 185 188 176 167 166 160 157 150 139 138 135 129 124 118 107 98 91 81 75 69 57 74 81 78 68 37 28 24 358 336 348 34 36 39 45 51 56 53
271 278 270 208 184 193 189 183 183 175 170 165 150 141 146 145 145 146 139 136 135 126 108 91 84 84 91 90 81 64 38 23 13 1 346 357 56 40 27 47 64 66 70